SCP
0 0 0 0 0 0 0 0 0 0 0 0 0 0 0 0 0 0 0 0 0 0 0 0 0 0 0 0 0 0 0 0 0 0 0 0 0 0
0 0 0 0 0 0 0 0 0 0 0 0 0 0 0 0 0 0 0 0 0 0 0 0 0 0 0 0 0 0 0 0 0 0 0 0 0 0
0 0 0 0 0 0 0 0 0 0 0 0 0 0 0 0 0 0 0 0 0 0 0 0 0 0 0 0 0 0 0 0 0 0 0 0 0 0
0 0 0 0 0 0 0 0 0 0 0 0 0 0 0 0 0 0 0 0 0 0 0 0 0 0 0 0 0 0 0 0 0 0 0 0 0 0
0 0 0 0 0 0 0 0 0 0 0 0 0 0 0 0 0 0 0 0 0 0 0 0 0 0 0 0 0 0 0 0 0 0 0 0 0 0
0 0 0 0 0 0 0 0 0 0 0 0 0 0 0 0 0 0 0 0 0 0 0 0 0 0 0 0 0 0 0 0 0 0 0 0 0 0
0 0 0 0 0 0 0 0 0 0 0 0 0 0 0 0 0 0 0 0 0 0 0 0 0 0 0 0 0 0 0 0 0 0 0 0 0 0
0 0 0 0 0 0 0 0 0 0 0 0 0 0 0 0 0 0 0 0 0 0 0 0 0 0 0 0 0 0 0 0 0 0 0 0 0 0
0 0 0 0 0 0 0 0 0 0 0 0 0 0 0 0 0 0 0 0 0 0 0 0 0 0 0 0 0 0 0 0 0 0 0 0 0 0
0 0 0 0 0 0 0 0 0 0 0 0 0 0 0 0 0 0 0 0 0 0 0 0 0 0 0 0 0 0 0 0 0 0 0 0 0 0
0 0 0 0 0 0 0 0 0 0 0 0 0 0 0 0 0 0 0 0 0 0 0 0 0 0 0 0 0 0 0 0 0 0 0 0 0 0
0 0 0 0 0 0 0 0 0 0 0 0 0 0 0 0 0 0 0 0 0 0 0 0 0 0 0 0 0 0 0 0 0 0 0 0 0 0
0 0 0 0 0 0 0 0 0 0 0 0 0 0 0 0 0 0 0 0 0 0 0 0 0 0 0 0 0 0 0 0 0 0 0 0 0 0
0 0 0 0 0 0 0 0 0 0 0 0 0 0 0 0 0 0 0 0 0 0 0 0 0 0 0 0 0 0 0 0 0 0 0 0 0 0
0 0 0 0 0 0 0 0 0 0 0 0 0 0 0 0 0 0 0 0 0 0 0 0 0 0 0 0 0 0 0 0 0 0 0 0 0 0
0 0 0 0 0 0 0 0 0 0 0 0 0 0 0 0 0 0 0 0 0 0 0 0 0 0 0 0 0 0 0 0 0 0 0 0 0 0
0 0 0 0 0 0 0 0 0 0 0 0 0 0 0 0 0 0 0 0 0 0 0 0 0 0 0 0 0 0 0 0 0 0 0 0 0 0
0 0 0 0 0 0 0 0 0 0 0 0 0 0 0 0 0 0 0 0 0 0 0 0 0 0 0 0 0 0 0 0 0 0 0 0 0 0
0 0 0 0 0 0 0 0 0 0 0 0 0 0 0 0 0 0 0 0 0 0 0 0 0 0 0 0 0 0 0 0 0 0 0 0 0 0
0 0 0 0 0 0 0 0 0 0 0 0 0 0 0 0 0 0 0 0 0 0 0 0 0 0 0 0 0 0 0 0 0 0 0 0 0 0
0 0 0 0 0 0 0 0 0 0 0 0 0 0 0 0 0 0 0 0 0 0 0 0 0 0 0 0 0 0 0 0 0 0 0 0 0 0
0 0 0 0 0 0 0 0 0 0 0 0 0 0 0 0 0 0 0 0 0 0 0 0 0 0 0 0 0 0 0 0 0 0 0 0 0 0
0 0 0 0 0 0 0 0 0 0 0 0 0 0 0 0 0 0 0 0 0 0 0 0 0 0 0 0 0 0 0 0 0 0 0 0 0 0
Wind_Speed
5 5 4 3 4 3 3 2 2 2 2 2 2 3 2 2 2 2 1 2 3 3 3 3 3 2 3 3 2 1 1 2 3 4 4 5 6 7
3 4 4 4 4 3 3 3 3 2 1 2 2 2 3 3 3 3 2 1 1 2 2 2 2 2 3 3 2 2 2 3 4 4 5 5 6 6
4 5 5 4 4 3 3 3 3 3 2 2 2 3 3 4 4 3 2 1 1 2 1 2 3 3 3 3 3 3 3 4 4 5 5 5 6 6
5 5 5 4 5 4 3 4 3 3 2 3 3 3 3 3 3 4 4 3 2 2 3 3 3 3 4 4 5 5 4 4 5 5 6 6 6 7
4 5 5 5 5 4 4 4 3 4 2 2 3 2 3 3 3 4 5 3 4 3 3 3 4 5 6 6 6 6 6 6 6 6 7 7 7 7
4 4 5 5 5 5 5 5 4 4 3 3 2 2 3 3 3 4 4 4 4 4 4 3 4 6 7 7 7 7 7 7 6 6 7 7 7 8
3 4 4 5 6 5 4 4 4 3 3 3 3 3 3 3 3 3 4 4 4 3 3 4 3 3 4 5 7 7 8 8 8 8 8 8 8 9
2 2 3 4 5 5 5 5 4 3 3 3 3 3 3 3 3 4 3 4 4 4 3 5 3 4 4 3 5 7 8 9 9 9 10 10 10 10
3 3 3 4 5 4 5 5 4 4 3 2 3 4 3 3 4 4 4 4 4 5 4 5 4 4 4 5 7 8 8 8 9 10 10 11 11 11
2 3 3 4 5 5 5 4 3 3 3 2 2 3 3 3 3 4 5 5 5 4 3 4 4 4 5 4 7 9 8 8 9 10 11 11 11 11
2 4 4 4 6 8 5 5 5 4 4 5 7 7 8 9 6 3 4 3 5 5 3 2 4 5 5 4 6 8 8 9 10 11 11 11 11 11
1 2 4 3 4 6 4 4 5 5 5 6 6 7 6 7 7 3 2 3 4 5 3 3 4 4 5 4 4 4 6 9 11 11 12 12 11 6
2 1 1 2 3 5 5 3 5 6 5 5 5 5 4 3 3 3 2 2 3 4 5 4 4 4 4 5 5 5 5 5 5 6 9 11 11 8
2 1 1 3 5 6 5 6 9 7 4 4 4 4 4 3 3 3 4 3 4 6 6 4 4 4 5 6 6 5 4 5 5 5 5 8 9 11
1 3 4 6 7 6 7 9 7 3 3 3 4 4 4 4 3 3 4 4 4 5 6 5 5 5 4 6 7 6 6 6 5 5 5 5 5 5
2 4 6 7 6 6 6 5 3 3 3 3 4 4 4 3 3 3 3 3 4 5 5 5 5 5 5 7 6 7 6 6 5 5 6 6 6 5
2 2 2 3 3 3 3 3 3 2 3 3 3 4 4 4 4 3 3 3 4 5 5 5 5 5 6 7 7 7 6 6 6 6 6 7 7 6
1 2 3 3 3 3 3 3 3 3 3 3 3 3 4 4 4 4 3 4 5 5 5 5 5 6 6 6 7 7 6 6 6 6 5 7 8 6
2 3 4 4 4 3 3 3 3 3 3 3 3 4 4 4 4 4 4 4 5 5 5 5 4 5 8 11 8 6 7 7 6 6 6 6 8 7
3 4 4 4 4 3 3 3 3 3 3 3 3 4 4 4 4 5 5 6 6 6 6 5 5 5 7 10 10 8 8 7 7 7 7 6 7 8
4 4 4 4 4 3 3 3 3 3 3 3 3 4 4 4 4 5 6 8 8 7 7 7 7 10 7 6 8 8 7 8 9 8 7 7 8 7
4 4 3 3 3 3 3 3 3 3 3 3 4 4 4 4 5 6 6 6 7 7 9 8 7 6 6 8 11 11 10 8 8 12 13 11 8 8
4 3 3 3 3 2 2 3 3 3 3 3 4 4 4 4 4 5 6 7 7 8 9 9 8 7 7 8 10 10 12 10 7 7 8 10 13 15
Wind_Direction
36 35 35 30 33 30 33 44 62 34 357 11 10 2 10 32 14 1 10 4 355 1 5 0 351 343 337 334 335 264 250 240 224 216 217 226 230 229
55 46 37 31 23 22 25 20 35 62 21 344 344 346 2 13 8 353 357 349 333 319 327 332 327 322 308 306 301 283 268 261 248 234 229 233 236 236
45 55 45 39 25 18 23 22 22 35 35 336 353 352 9 7 351 344 340 318 278 268 275 306 297 299 295 289 284 272 263 262 259 250 240 238 240 241
46 51 43 38 29 23 22 20 16 17 34 351 339 349 355 346 343 339 340 347 339 281 265 275 288 290 282 278 270 265 262 259 255 251 247 243 244 247
54 52 45 42 31 17 20 20 8 8 7 358 327 331 336 342 350 340 342 338 332 314 269 267 279 282 278 272 268 260 254 253 253 249 246 247 246 246
71 65 53 52 37 15 19 12 7 1 352 351 334 330 338 340 2 348 339 336 326 325 327 313 289 283 278 277 270 263 254 251 250 252 251 248 247 248
65 78 76 68 55 39 26 7 3 359 351 351 342 345 347 353 347 335 335 324 317 324 332 318 305 290 279 274 272 268 262 254 251 251 251 252 253 251
50 75 97 78 52 32 15 6 4 4 358 351 340 343 334 337 339 334 335 338 322 318 327 307 304 295 284 270 273 269 267 262 253 250 249 248 249 250
24 37 48 63 51 19 357 351 341 339 339 333 341 331 329 332 336 331 325 316 293 295 320 305 303 297 296 301 290 280 276 273 266 257 256 254 250 249
22 38 51 56 41 29 1 343 329 326 310 328 307 304 313 310 309 304 297 299 296 299 309 296 304 303 309 305 292 280 275 275 274 271 264 260 257 254
38 47 51 60 36 25 5 343 337 330 326 329 316 304 300 297 295 311 312 316 306 299 301 299 306 309 301 291 294 296 290 285 281 277 271 265 260 258
37 66 62 62 33 17 2 346 336 329 333 322 309 301 293 287 285 260 265 295 304 305 312 320 306 316 305 292 303 306 297 287 282 278 274 268 263 259
358 12 21 24 7 346 338 319 304 313 315 310 307 304 301 295 287 275 268 265 284 283 296 312 300 299 285 291 292 283 282 288 289 283 273 268 264 252
335 350 334 334 326 315 309 298 306 315 308 308 308 309 308 303 296 291 291 281 262 269 285 296 289 289 293 294 293 291 291 287 285 281 273 270 262 256
305 315 305 297 302 295 286 293 303 301 297 302 300 295 290 287 296 301 301 300 296 291 293 290 286 286 282 283 285 287 294 287 278 282 282 274 263 255
276 287 289 284 283 285 290 287 265 262 272 276 285 289 300 306 303 299 301 306 306 300 291 288 286 286 287 281 279 284 282 279 286 286 284 279 270 255
294 290 281 278 277 278 280 278 274 279 278 277 282 292 300 301 294 290 289 295 294 296 301 299 291 284 277 276 279 274 276 277 276 281 284 284 275 262
284 268 272 271 274 279 285 289 290 288 284 285 288 287 290 294 295 294 288 286 288 292 295 297 304 308 305 286 258 271 275 276 278 277 274 282 283 271
238 249 258 265 269 272 273 274 278 281 287 293 294 295 296 298 299 299 297 292 288 287 289 291 296 299 300 299 290 260 273 281 280 280 274 272 279 278
228 240 250 256 260 264 266 269 274 282 285 287 291 296 300 303 305 305 303 301 297 296 296 296 293 288 285 289 291 286 265 266 274 276 277 278 276 276
237 238 241 246 250 256 261 264 268 272 279 285 292 296 298 301 300 298 298 300 299 297 295 291 281 281 280 290 288 285 278 266 265 271 276 282 285 282
241 243 247 250 251 253 257 263 271 277 285 284 285 287 289 290 294 297 299 300 296 292 292 291 290 290 286 288 288 288 289 285 272 265 260 255 261 267
241 243 247 253 252 254 259 269 276 279 279 282 285 288 290 293 294 294 296 296 297 297 298 298 296 290 283 281 286 287 286 287 288 283 275 263 259 261